DAL1180 LFPG-EGLL

Flight info

Callsign DAL1180
Flight time 0h 41m
Altitude 24000
Route OPALE DCT KESAX DCT DIMAL DCT ALESO
Aircraft A320/M-SDE3FGHIRWY/LB1

Departure

Time 2026-05-08 21:41
Airport Charles de Gaulle International Airport (LFPG)

Arrival

Time 2026-05-08 22:22
Airport London Heathrow Airport (EGLL)
Time Latitude Longitude Altitude Speed Heading
2026-05-08 20:53 49.00687 2.56051 355 ft 0 kts 355°
2026-05-08 21:20 49.00685 2.56051 354 ft 2 kts 355°
2026-05-08 21:20 49.00665 2.56054 354 ft 3 kts 353°
2026-05-08 21:20 49.00645 2.56058 358 ft 3 kts 349°
2026-05-08 21:21 49.00626 2.56065 361 ft 3 kts 336°
2026-05-08 21:21 49.00610 2.56079 358 ft 3 kts 299°
2026-05-08 21:21 49.00607 2.56095 356 ft 0 kts 257°
2026-05-08 21:24 49.00607 2.56094 354 ft 0 kts 257°
2026-05-08 21:24 49.00598 2.56058 361 ft 7 kts 249°
2026-05-08 21:24 49.00582 2.55996 360 ft 0 kts 250°
2026-05-08 21:26 49.00575 2.55962 359 ft 9 kts 254°
2026-05-08 21:26 49.00566 2.55848 362 ft 10 kts 265°
2026-05-08 21:26 49.00561 2.55749 357 ft 11 kts 265°
2026-05-08 21:26 49.00555 2.55628 358 ft 11 kts 265°
2026-05-08 21:27 49.00549 2.55521 354 ft 9 kts 265°
2026-05-08 21:27 49.00584 2.55413 354 ft 14 kts 330°
2026-05-08 21:27 49.00677 2.55370 358 ft 14 kts 344°
2026-05-08 21:27 49.00774 2.55327 362 ft 15 kts 344°
2026-05-08 21:28 49.00876 2.55283 358 ft 16 kts 344°
2026-05-08 21:28 49.00981 2.55238 357 ft 16 kts 344°
2026-05-08 21:28 49.01092 2.55190 358 ft 17 kts 344°
2026-05-08 21:28 49.01212 2.55137 354 ft 19 kts 344°
2026-05-08 21:29 49.01342 2.55083 358 ft 20 kts 346°
2026-05-08 21:29 49.01481 2.55045 356 ft 21 kts 351°
2026-05-08 21:29 49.01630 2.55015 363 ft 22 kts 355°
2026-05-08 21:29 49.01784 2.54999 357 ft 20 kts 357°
2026-05-08 21:30 49.01900 2.55063 358 ft 18 kts 24°
2026-05-08 21:30 49.02007 2.55007 358 ft 18 kts 302°
2026-05-08 21:30 49.01985 2.54884 356 ft 12 kts 209°
2026-05-08 21:30 49.01907 2.54856 359 ft 12 kts 182°
2026-05-08 21:31 49.01846 2.54817 358 ft 9 kts 248°
2026-05-08 21:31 49.01837 2.54702 354 ft 15 kts 266°
2026-05-08 21:31 49.01831 2.54544 363 ft 15 kts 266°
2026-05-08 21:31 49.01821 2.54354 358 ft 20 kts 265°
2026-05-08 21:32 49.01810 2.54137 359 ft 21 kts 265°
2026-05-08 21:32 49.01799 2.53914 354 ft 21 kts 265°
2026-05-08 21:32 49.01785 2.53691 357 ft 21 kts 265°
2026-05-08 21:32 49.01773 2.53472 358 ft 20 kts 265°
2026-05-08 21:33 49.01760 2.53250 356 ft 22 kts 265°
2026-05-08 21:33 49.01749 2.53019 357 ft 22 kts 265°
2026-05-08 21:33 49.01737 2.52777 360 ft 23 kts 265°
2026-05-08 21:33 49.01725 2.52530 359 ft 20 kts 264°
2026-05-08 21:34 49.01714 2.52352 359 ft 16 kts 264°
2026-05-08 21:34 49.01702 2.52183 363 ft 16 kts 264°
2026-05-08 21:34 49.01695 2.52020 358 ft 15 kts 270°
2026-05-08 21:34 49.01758 2.51921 354 ft 15 kts 349°
2026-05-08 21:35 49.01837 2.51910 356 ft 9 kts
2026-05-08 21:35 49.01874 2.51968 360 ft 9 kts 73°
2026-05-08 21:35 49.01885 2.52124 360 ft 18 kts 85°
2026-05-08 21:35 49.01908 2.52306 357 ft 18 kts 53°
2026-05-08 21:36 49.01966 2.52342 358 ft 0 kts 359°
2026-05-08 21:37 49.01983 2.52341 359 ft 10 kts 357°
2026-05-08 21:37 49.02064 2.52332 360 ft 12 kts 355°
2026-05-08 21:37 49.02122 2.52358 354 ft 6 kts 90°
2026-05-08 21:38 49.02123 2.52377 354 ft 0 kts 86°
2026-05-08 21:39 49.02131 2.52562 356 ft 52 kts 85°
2026-05-08 21:40 49.02182 2.53468 358 ft 116 kts 85°
2026-05-08 21:40 49.02268 2.54965 358 ft 165 kts 84°
2026-05-08 21:40 49.02341 2.56699 885 ft 164 kts 85°
2026-05-08 21:41 49.02535 2.60223 1942 ft 169 kts 84°
2026-05-08 21:41 49.02636 2.62083 2345 ft 185 kts 84°
2026-05-08 21:41 49.02747 2.64164 2619 ft 210 kts 84°
2026-05-08 21:41 49.02872 2.66506 2995 ft 234 kts 85°
2026-05-08 21:42 49.03007 2.69074 3577 ft 249 kts 85°
2026-05-08 21:42 49.03148 2.71740 4413 ft 255 kts 83°
2026-05-08 21:42 49.03745 2.74287 5182 ft 263 kts 53°
2026-05-08 21:42 49.05227 2.75945 5917 ft 272 kts 21°
2026-05-08 21:43 49.07097 2.76490 6698 ft 278 kts 358°
2026-05-08 21:43 49.08985 2.75800 7469 ft 285 kts 332°
2026-05-08 21:43 49.10653 2.74159 8285 ft 287 kts 325°
2026-05-08 21:43 49.12301 2.72416 9079 ft 290 kts 324°
2026-05-08 21:44 49.13964 2.70640 9848 ft 293 kts 324°
2026-05-08 21:44 49.15645 2.68843 10520 ft 301 kts 324°
2026-05-08 21:44 49.17427 2.66937 10730 ft 325 kts 324°
2026-05-08 21:44 49.19343 2.64885 10893 ft 348 kts 324°
2026-05-08 21:45 49.21387 2.62703 11022 ft 369 kts 324°
2026-05-08 21:45 49.23557 2.60391 11157 ft 389 kts 324°
2026-05-08 21:45 49.25809 2.57997 11566 ft 398 kts 324°
2026-05-08 21:45 49.28087 2.55578 12146 ft 401 kts 324°
2026-05-08 21:46 49.30392 2.53129 12744 ft 404 kts 324°
2026-05-08 21:46 49.32681 2.50691 13323 ft 407 kts 324°
2026-05-08 21:46 49.35044 2.48164 13898 ft 411 kts 324°
2026-05-08 21:46 49.37396 2.45641 14448 ft 414 kts 324°
2026-05-08 21:47 49.39766 2.43095 14969 ft 417 kts 324°
2026-05-08 21:47 49.42163 2.40520 15471 ft 420 kts 324°
2026-05-08 21:47 49.44571 2.37932 15942 ft 424 kts 324°
2026-05-08 21:47 49.46958 2.35367 16395 ft 427 kts 324°
2026-05-08 21:48 49.49401 2.32739 16829 ft 430 kts 324°
2026-05-08 21:48 49.51849 2.30100 17248 ft 433 kts 324°
2026-05-08 21:48 49.54326 2.27425 17651 ft 436 kts 324°
2026-05-08 21:48 49.56818 2.24734 18055 ft 439 kts 324°
2026-05-08 21:49 49.59321 2.22024 18439 ft 441 kts 324°
2026-05-08 21:49 49.61838 2.19294 18828 ft 443 kts 324°
2026-05-08 21:49 49.64364 2.16551 19055 ft 444 kts 324°
2026-05-08 21:49 49.66886 2.13805 19111 ft 444 kts 324°
2026-05-08 21:50 49.69402 2.11064 19109 ft 442 kts 324°
2026-05-08 21:50 49.71920 2.08317 19109 ft 443 kts 324°
2026-05-08 21:50 49.74431 2.05573 19109 ft 442 kts 324°
2026-05-08 21:50 49.76949 2.02815 19304 ft 444 kts 324°
2026-05-08 21:51 49.79473 2.00048 19689 ft 446 kts 324°
2026-05-08 21:51 49.82011 1.97266 20055 ft 448 kts 324°
2026-05-08 21:51 49.84562 1.94468 20380 ft 450 kts 325°
2026-05-08 21:51 49.87114 1.91665 20704 ft 451 kts 325°
2026-05-08 21:52 49.89682 1.88844 21035 ft 452 kts 325°
2026-05-08 21:52 49.92220 1.85956 21382 ft 453 kts 323°
2026-05-08 21:52 49.94709 1.82961 21724 ft 453 kts 322°
2026-05-08 21:52 49.97163 1.79892 22048 ft 453 kts 321°
2026-05-08 21:53 49.99598 1.76797 22351 ft 454 kts 321°
2026-05-08 21:53 50.02048 1.73682 22621 ft 455 kts 321°
2026-05-08 21:53 50.04508 1.70583 22881 ft 456 kts 321°
2026-05-08 21:53 50.07067 1.67672 23139 ft 456 kts 328°
2026-05-08 21:54 50.09869 1.65365 23382 ft 457 kts 335°
2026-05-08 21:54 50.12760 1.63287 23616 ft 458 kts 335°
2026-05-08 21:54 50.15650 1.61206 23852 ft 458 kts 335°
2026-05-08 21:54 50.17564 1.59824 23989 ft 459 kts 335°
2026-05-08 21:55 50.21413 1.57036 24105 ft 462 kts 335°
2026-05-08 21:55 50.24327 1.54917 24110 ft 463 kts 335°
2026-05-08 21:55 50.27242 1.52789 24109 ft 463 kts 335°
2026-05-08 21:56 50.33090 1.48512 24109 ft 464 kts 335°
2026-05-08 21:56 50.36017 1.46371 24109 ft 464 kts 335°
2026-05-08 21:56 50.38939 1.44229 24109 ft 465 kts 334°
2026-05-08 21:56 50.40921 1.42775 24109 ft 465 kts 334°
2026-05-08 21:57 50.43850 1.40627 24109 ft 465 kts 334°
2026-05-08 21:57 50.46763 1.38409 24108 ft 465 kts 330°
2026-05-08 21:57 50.49466 1.35626 24108 ft 465 kts 322°
2026-05-08 21:57 50.51862 1.32222 24110 ft 466 kts 313°
2026-05-08 21:58 50.54059 1.28470 24108 ft 466 kts 313°
2026-05-08 21:58 50.56258 1.24729 24109 ft 466 kts 313°
2026-05-08 21:58 50.58440 1.21052 24109 ft 466 kts 314°
2026-05-08 21:58 50.60726 1.17343 24109 ft 466 kts 315°
2026-05-08 21:59 50.62992 1.13777 24108 ft 466 kts 315°
2026-05-08 21:59 50.65308 1.10194 24110 ft 466 kts 315°
2026-05-08 21:59 50.67623 1.06619 24110 ft 466 kts 315°
2026-05-08 21:59 50.69930 1.03023 24108 ft 466 kts 315°
2026-05-08 22:00 50.72227 0.99407 23950 ft 467 kts 315°
2026-05-08 22:00 50.74517 0.95768 23799 ft 465 kts 314°
2026-05-08 22:00 50.76789 0.92138 23608 ft 465 kts 314°
2026-05-08 22:00 50.79056 0.88507 23359 ft 464 kts 314°
2026-05-08 22:01 50.81353 0.84831 23106 ft 463 kts 314°
2026-05-08 22:01 50.83617 0.81205 22854 ft 462 kts 314°
2026-05-08 22:01 50.85867 0.77600 22288 ft 458 kts 314°
2026-05-08 22:01 50.88090 0.74036 21391 ft 455 kts 314°
2026-05-08 22:02 50.90304 0.70478 20572 ft 451 kts 314°
2026-05-08 22:02 50.92495 0.66956 19728 ft 447 kts 314°
2026-05-08 22:02 50.94673 0.63452 18924 ft 444 kts 314°
2026-05-08 22:02 50.96829 0.59972 18135 ft 441 kts 314°
2026-05-08 22:03 50.98978 0.56500 17085 ft 442 kts 314°
2026-05-08 22:03 51.01103 0.53066 15936 ft 430 kts 314°
2026-05-08 22:03 51.03162 0.49735 15234 ft 411 kts 314°
2026-05-08 22:03 51.05089 0.46609 15056 ft 380 kts 313°
2026-05-08 22:04 51.06847 0.43750 14925 ft 353 kts 314°
2026-05-08 22:04 51.08549 0.41057 14794 ft 329 kts 315°
2026-05-08 22:04 51.10157 0.38595 14412 ft 316 kts 315°
2026-05-08 22:04 51.11739 0.36210 13842 ft 311 kts 315°
2026-05-08 22:05 51.13299 0.33862 13247 ft 307 kts 316°
2026-05-08 22:05 51.14839 0.31530 12623 ft 304 kts 315°
2026-05-08 22:05 51.16352 0.29225 12066 ft 298 kts 315°
2026-05-08 22:05 51.17843 0.26943 11502 ft 294 kts 315°
2026-05-08 22:06 51.19317 0.24687 11333 ft 295 kts 315°
2026-05-08 22:06 51.20816 0.22396 10836 ft 299 kts 316°
2026-05-08 22:06 51.22283 0.20153 10511 ft 293 kts 316°
2026-05-08 22:06 51.23749 0.17907 9851 ft 291 kts 316°
2026-05-08 22:07 51.25200 0.15676 9195 ft 289 kts 316°
2026-05-08 22:07 51.26638 0.13459 8537 ft 286 kts 316°
2026-05-08 22:07 51.28047 0.11258 7919 ft 282 kts 313°
2026-05-08 22:07 51.29027 0.08615 7341 ft 276 kts 285°
2026-05-08 22:08 51.29350 0.05618 7160 ft 276 kts 277°
2026-05-08 22:08 51.29570 0.02557 7033 ft 278 kts 276°
2026-05-08 22:08 51.29784 -0.00560 7035 ft 280 kts 276°
2026-05-08 22:08 51.29992 -0.03609 7035 ft 280 kts 276°
2026-05-08 22:09 51.30210 -0.06752 7036 ft 281 kts 276°
2026-05-08 22:09 51.30435 -0.09845 7036 ft 280 kts 276°
2026-05-08 22:09 51.30668 -0.12935 7034 ft 280 kts 276°
2026-05-08 22:09 51.30900 -0.15974 7028 ft 279 kts 276°
2026-05-08 22:10 51.31135 -0.19055 7028 ft 279 kts 276°
2026-05-08 22:10 51.31368 -0.22131 7025 ft 279 kts 276°
2026-05-08 22:10 51.31604 -0.25211 7019 ft 279 kts 276°
2026-05-08 22:10 51.31838 -0.28291 7019 ft 279 kts 276°
2026-05-08 22:11 51.32072 -0.31375 7004 ft 279 kts 276°
2026-05-08 22:11 51.32305 -0.34448 6998 ft 279 kts 276°
2026-05-08 22:11 51.32538 -0.37526 7014 ft 279 kts 276°
2026-05-08 22:11 51.32770 -0.40602 7014 ft 279 kts 276°
2026-05-08 22:12 51.33002 -0.43688 7010 ft 279 kts 276°
2026-05-08 22:12 51.33233 -0.46766 7012 ft 279 kts 276°
2026-05-08 22:12 51.33466 -0.49854 7010 ft 279 kts 276°
2026-05-08 22:12 51.33698 -0.52937 7015 ft 279 kts 276°
2026-05-08 22:13 51.33928 -0.56013 7014 ft 279 kts 276°
2026-05-08 22:13 51.34159 -0.59087 6885 ft 277 kts 276°
2026-05-08 22:13 51.34389 -0.62137 6461 ft 276 kts 276°
2026-05-08 22:13 51.34622 -0.65181 6061 ft 275 kts 276°
2026-05-08 22:14 51.34854 -0.68198 5657 ft 273 kts 276°
2026-05-08 22:14 51.35084 -0.71206 5255 ft 272 kts 276°
2026-05-08 22:14 51.35453 -0.74165 4830 ft 272 kts 292°
2026-05-08 22:14 51.36545 -0.76583 4415 ft 271 kts 319°
2026-05-08 22:15 51.38035 -0.78380 4172 ft 263 kts 325°
2026-05-08 22:15 51.39502 -0.80004 4046 ft 250 kts 326°
2026-05-08 22:15 51.40906 -0.81546 3922 ft 240 kts 326°
2026-05-08 22:15 51.42262 -0.83005 3797 ft 230 kts 332°
2026-05-08 22:16 51.43746 -0.83612 3657 ft 216 kts
2026-05-08 22:16 51.45083 -0.82812 3476 ft 202 kts 44°
2026-05-08 22:16 51.45964 -0.81155 3341 ft 189 kts 58°
2026-05-08 22:16 51.46666 -0.79450 3203 ft 178 kts 60°
2026-05-08 22:17 51.47308 -0.77826 3091 ft 166 kts 66°
2026-05-08 22:17 51.47602 -0.76151 3001 ft 149 kts 92°
2026-05-08 22:17 51.47611 -0.74526 3008 ft 144 kts 92°
2026-05-08 22:17 51.47622 -0.72943 2997 ft 141 kts 92°
2026-05-08 22:18 51.47632 -0.71384 2839 ft 139 kts 92°
2026-05-08 22:18 51.47642 -0.69834 2671 ft 138 kts 92°
2026-05-08 22:18 51.47651 -0.68295 2491 ft 138 kts 91°
2026-05-08 22:18 51.47659 -0.66767 2316 ft 137 kts 91°
2026-05-08 22:19 51.47668 -0.65239 2131 ft 137 kts 91°
2026-05-08 22:19 51.47676 -0.63708 1950 ft 137 kts 90°
2026-05-08 22:19 51.47684 -0.62177 1769 ft 137 kts 90°
2026-05-08 22:19 51.47692 -0.60647 1587 ft 137 kts 90°
2026-05-08 22:20 51.47700 -0.59119 1410 ft 137 kts 90°
2026-05-08 22:20 51.47707 -0.57592 1223 ft 137 kts 89°
2026-05-08 22:20 51.47715 -0.56066 1041 ft 137 kts 90°
2026-05-08 22:20 51.47722 -0.54542 850 ft 137 kts 89°
2026-05-08 22:21 51.47729 -0.53017 655 ft 137 kts 90°
2026-05-08 22:21 51.47735 -0.51498 489 ft 137 kts 89°
2026-05-08 22:21 51.47737 -0.49981 304 ft 136 kts 90°
2026-05-08 22:21 51.47744 -0.48459 110 ft 136 kts 90°
2026-05-08 22:22 51.47747 -0.47254 88 ft 49 kts 90°
2026-05-08 22:22 51.47752 -0.46809 94 ft 38 kts 89°
2026-05-08 22:22 51.47755 -0.46423 97 ft 33 kts 88°
2026-05-08 22:22 51.47705 -0.46154 90 ft 23 kts 138°
2026-05-08 22:23 51.47609 -0.46064 88 ft 6 kts 174°
2026-05-08 22:23 51.47602 -0.46063 88 ft 0 kts 175°
2026-05-08 22:23 51.47594 -0.46065 92 ft 6 kts 188°
2026-05-08 22:23 51.47557 -0.46079 92 ft 3 kts 198°
2026-05-08 22:24 51.47522 -0.46139 94 ft 15 kts 248°
2026-05-08 22:24 51.47517 -0.46312 92 ft 15 kts 270°
2026-05-08 22:24 51.47516 -0.46464 91 ft 12 kts 268°
2026-05-08 22:24 51.47514 -0.46577 92 ft 9 kts 270°
2026-05-08 22:25 51.47514 -0.46677 91 ft 9 kts 270°
2026-05-08 22:25 51.47482 -0.46751 89 ft 9 kts 195°
2026-05-08 22:25 51.47418 -0.46742 90 ft 9 kts 169°
2026-05-08 22:25 51.47363 -0.46725 88 ft 8 kts 170°
2026-05-08 22:26 51.47302 -0.46723 88 ft 11 kts 181°
2026-05-08 22:26 51.47203 -0.46724 88 ft 17 kts 180°
2026-05-08 22:26 51.47091 -0.46725 90 ft 16 kts 179°
2026-05-08 22:26 51.47027 -0.46698 89 ft 1 kts 146°
2026-05-08 22:29 51.47026 -0.46698 86 ft 1 kts 146°
2026-05-08 22:29 51.46993 -0.46663 86 ft 8 kts 146°
2026-05-08 22:29 51.46971 -0.46639 89 ft 2 kts 146°
2026-05-08 22:29 51.46922 -0.46578 88 ft 17 kts 139°
2026-05-08 22:30 51.46893 -0.46444 91 ft 7 kts 41°
2026-05-08 22:30 51.46900 -0.46425 89 ft 2 kts 59°
2026-05-08 22:30 51.46907 -0.46407 87 ft 0 kts 58°